Tracking 30743 objects as of 22-Jun-2025
HD Live streaming from Space Station
objects crossing your sky now

STARLINK-6050

Track STARLINK-6050 now!
10-day predictions
STARLINK-6050 is classified as:


NORAD ID: 56458
Int'l Code: 2023-064L
Perigee: 577.3 km
Apogee: 581.1 km
Inclination: 70.0 °
Period: 96.1 minutes
Semi major axis: 6950 km
RCS: Unknown
Launch date: May 10, 2023
Source: United States (US)
Launch site: AIR FORCE WESTERN TEST RANGE (AFWTR)
Your satellite tracking list
Your tracking list is empty




NASA's NSSDC Master Catalog

Two Line Element Set (TLE):
1 56458U 23064L   25172.45334374 -.00000265  00000-0 -14441-4 0  9996
2 56458  70.0004  83.1968 0002767 268.0482  92.0360 14.98329657116112
Source of the keplerian elements: AFSPC